Monterey, CA

1:11 AM PST on February 07, 2016 (GMT -0800)
Monterey Peninsula

Weather History for KMRY - February, 2013

Change the Weather History Date:

Monday, February 18, 2013

  Actual Average Record
Temperature  
Mean Temperature 49 °F 53 °F  
Max Temperature 51 °F 61 °F 65 °F (2000)
Min Temperature 46 °F 45 °F 38 °F (2006)
Degree Days  
Heating Degree Days 16    
Month to date heating degree days 273  
Since 1 July heating degree days 2098  
Cooling Degree Days 0    
Month to date cooling degree days 0  
Year to date cooling degree days 0  
Moisture  
Dew Point 41 °F    
Average Humidity 74    
Maximum Humidity 86    
Minimum Humidity 61    
Precipitation  
Precipitation 0.00 in - 0.87 in (2011)
Month to date precipitation 0.26  
Year to date precipitation 1.07  
Since 1 July precipitation 9.31  
Sea Level Pressure  
Sea Level Pressure 30.07 in    
Wind  
Wind Speed 6 mph (WSW)    
Max Wind Speed 14 mph    
Max Gust Speed 26 mph    
Visibility 10 miles    
Events      
T = Trace of Precipitation, MM = Missing Value Source: NWS Daily Summary

Daily Weather History Graph

Daily Weather History Graph

Search for Another Location

Airport or City:

Trip Planner

Search our weather history database for the weather conditions in past years. The results will help you decide how hot, cold, wet, or windy it might be!

Date:

Astronomy

Feb. 18, 2013 Rise Set
Actual Time 6:51 AM PST 5:51 PM PST
Civil Twilight 6:25 AM PST 6:17 PM PST
Nautical Twilight 5:55 AM PST 6:47 PM PST
Astronomical Twilight 5:25 AM PST 7:17 PM PST
Moon 11:45 AM PST (2/18) 1:31 AM PST (2/18)
Length of Visible Light 11h 52m
Length of Day
10h 59m
First Quarter, 59% of the Moon is Illuminated
Feb 18
First Quarter
Feb 25
Full
Mar 4
Last Quarter
Mar 11
New
Mar 19
First Quarter

Hourly Weather History & Observations

Time (PST) Temp. Windchill Dew Point Humidity Pressure Visibility Wind Dir Wind Speed Gust Speed Precip Events Conditions
12:54 AM 48.9 °F - 45.0 °F 86% 30.09 in 9.0 mi SSW 4.6 mph - N/A   Overcast
1:54 AM 48.9 °F - 45.0 °F 86% 30.09 in 9.0 mi WSW 4.6 mph - N/A   Overcast
2:16 AM 50.0 °F - 44.6 °F 82% 30.04 in 9.0 mi West 3.5 mph - N/A   Overcast
2:54 AM 50.0 °F - 45.0 °F 83% 30.07 in 9.0 mi WSW 4.6 mph - N/A   Overcast
3:54 AM 48.9 °F - 45.0 °F 86% 30.06 in 9.0 mi SW 3.5 mph - N/A   Overcast
4:54 AM 48.9 °F - 44.1 °F 83% 30.06 in 10.0 mi Calm Calm - N/A   Overcast
5:54 AM 48.9 °F - 43.0 °F 80% 30.07 in 10.0 mi WSW 8.1 mph - N/A   Overcast
6:54 AM 48.9 °F - 43.0 °F 80% 30.09 in 10.0 mi WSW 8.1 mph - N/A   Overcast
7:54 AM 48.9 °F - 43.0 °F 80% 30.10 in 10.0 mi WSW 4.6 mph - N/A   Overcast
8:21 AM 48.2 °F - 42.8 °F 82% 30.06 in 10.0 mi West 5.8 mph - N/A   Overcast
8:54 AM 48.9 °F - 43.0 °F 80% 30.11 in 10.0 mi WNW 3.5 mph - N/A   Overcast
9:54 AM 50.0 °F - 43.0 °F 77% 30.12 in 10.0 mi West 5.8 mph - N/A   Overcast
10:54 AM 50.0 °F - 42.1 °F 74% 30.12 in 10.0 mi West 9.2 mph - N/A   Overcast
11:54 AM 50.0 °F - 39.9 °F 68% 30.12 in 10.0 mi West 6.9 mph - N/A   Overcast
12:54 PM 50.0 °F - 39.0 °F 66% 30.10 in 10.0 mi WSW 9.2 mph - N/A   Overcast
1:54 PM 50.0 °F - 39.0 °F 66% 30.08 in 10.0 mi WSW 8.1 mph - N/A   Overcast
2:54 PM 50.0 °F - 37.9 °F 63% 30.07 in 10.0 mi WSW 8.1 mph - N/A   Overcast
3:54 PM 50.0 °F - 39.0 °F 66% 30.06 in 10.0 mi West 9.2 mph - N/A   Overcast
4:07 PM 50.0 °F - 39.2 °F 66% 30.03 in 10.0 mi WSW 5.8 mph - N/A   Overcast
4:34 PM 50.0 °F - 37.4 °F 62% 30.02 in 10.0 mi North - - N/A   Overcast
4:54 PM 50.0 °F - 37.0 °F 61% 30.06 in 10.0 mi North - - N/A   Overcast
5:54 PM 48.9 °F - 37.0 °F 64% 30.06 in 10.0 mi SW 6.9 mph - N/A   Overcast
6:34 PM 48.2 °F - 39.2 °F 71% 30.03 in 10.0 mi WSW 5.8 mph - N/A   Overcast
6:54 PM 48.0 °F - 42.1 °F 80% 30.07 in 10.0 mi West 9.2 mph - N/A   Overcast
7:10 PM 46.4 °F 42.9 °F 41.0 °F 81% 30.03 in 10.0 mi West 6.9 mph - N/A   Overcast
7:25 PM 46.4 °F 45.2 °F 39.2 °F 76% 30.03 in 10.0 mi West 3.5 mph - N/A   Overcast
7:38 PM 48.2 °F - 39.2 °F 71% 30.03 in 10.0 mi Calm Calm - N/A   Overcast
7:54 PM 48.0 °F - 39.9 °F 74% 30.06 in 10.0 mi Calm Calm - N/A   Overcast
8:54 PM 48.0 °F - 39.9 °F 74% 30.06 in 10.0 mi Calm Calm - N/A   Overcast
9:54 PM 48.0 °F - 39.0 °F 71% 30.06 in 10.0 mi South 3.5 mph - N/A   Overcast
10:54 PM 48.0 °F - 39.0 °F 71% 30.06 in 10.0 mi SSW 4.6 mph - N/A   Overcast
11:13 PM 48.2 °F - 39.2 °F 71% 30.01 in 10.0 mi West 9.2 mph - N/A   Overcast
11:54 PM 46.9 °F - 42.1 °F 83% 30.05 in 6.0 mi WSW 6.9 mph - N/A   Haze